Sierra Vista, AZ

1:26 AM MST on July 23, 2017 (GMT -0700)
Sierra Vista Municipal-Libby Army Air Field

Weather History for KFHU - March, 2012

Change the Weather History Date:

Friday, March 30, 2012

  Actual Average Record
Temperature  
Mean Temperature 63 °F -  
Max Temperature 80 °F 68 °F 81 °F (1986)
Min Temperature 46 °F 46 °F 29 °F (1985)
Degree Days  
Heating Degree Days 2    
Growing Degree Days 13 (Base 50)    
Moisture  
Dew Point 16 °F    
Average Humidity 17    
Maximum Humidity 32    
Minimum Humidity 8    
Precipitation  
Precipitation 0.00 in - - ()
Sea Level Pressure  
Sea Level Pressure 29.92 in    
Wind  
Wind Speed 8 mph (WSW)    
Max Wind Speed 13 mph    
Max Gust Speed -    
Visibility 10 miles    
Events      
Averages and records for this station are not official NWS values.
T = Trace of Precipitation, MM = Missing Value Source: NWS Daily Summary

Daily Weather History Graph

Daily Weather History Graph

Search for Another Location

Airport or City:

Trip Planner

Search our weather history database for the weather conditions in past years. The results will help you decide how hot, cold, wet, or windy it might be!

Date:

Astronomy

Mar. 30, 2012 Rise Set
Actual Time 6:11 AM MST 6:39 PM MST
Civil Twilight 5:47 AM MST 7:04 PM MST
Nautical Twilight 5:18 AM MST 7:33 PM MST
Astronomical Twilight 4:49 AM MST 8:02 PM MST
Moon 11:37 AM MST (3/30) 1:01 AM MST (3/30)
Length of Visible Light 13h 17m
Length of Day
12h 28m
Waxing Crescent, 50% of the Moon is Illuminated
Mar 30
Waxing Crescent
Mar 30
First Quarter
Apr 6
Full
Apr 13
Last Quarter
Apr 21
New

Hourly Weather History & Observations

Time (MST) Temp. Windchill Dew Point Humidity Pressure Visibility Wind Dir Wind Speed Gust Speed Precip Events Conditions
12:56 AM 55.9 °F - 16.0 °F 21% 29.90 in 10.0 mi West 6.9 mph - N/A   Clear
1:56 AM 55.0 °F - 14.0 °F 20% 29.90 in 10.0 mi West 10.4 mph - N/A   Clear
2:56 AM 55.0 °F - 14.0 °F 20% 29.91 in 10.0 mi SW 9.2 mph - N/A   Clear
3:56 AM 55.0 °F - 16.0 °F 22% 29.91 in 10.0 mi SW 10.4 mph - N/A   Clear
4:56 AM 54.0 °F - 17.1 °F 23% 29.91 in 10.0 mi SW 9.2 mph - N/A   Clear
5:55 AM 46.4 °F 42.9 °F 17.6 °F 32% 29.95 in 10.0 mi SSE 6.9 mph - N/A   Scattered Clouds
6:55 AM 53.6 °F - 17.6 °F 24% 29.95 in 10.0 mi South 4.6 mph - N/A   Scattered Clouds
7:55 AM 62.6 °F - 19.4 °F 19% 29.96 in 10.0 mi NNW 4.6 mph - N/A   Partly Cloudy
8:55 AM 66.2 °F - 17.6 °F 15% 29.97 in 10.0 mi Calm Calm - N/A   Partly Cloudy
9:55 AM 69.8 °F - 15.8 °F 13% 29.97 in 10.0 mi Calm Calm - N/A   Partly Cloudy
10:55 AM 71.6 °F - 15.8 °F 12% 29.96 in 10.0 mi East 5.8 mph - N/A   Partly Cloudy
11:55 AM 75.2 °F - 14.0 °F 10% 29.94 in 10.0 mi Variable 4.6 mph - N/A   Partly Cloudy
2:55 PM 78.8 °F - 12.2 °F 8% 29.88 in 10.0 mi West 11.5 mph - N/A   Scattered Clouds
3:55 PM 80.6 °F - 12.2 °F 8% 29.86 in 10.0 mi WNW 12.7 mph - N/A   Scattered Clouds
4:55 PM 78.8 °F - 12.2 °F 8% 29.87 in 10.0 mi West 9.2 mph - N/A   Scattered Clouds
5:55 PM 77.0 °F - 15.8 °F 10% 29.90 in 10.0 mi West 12.7 mph - N/A   Partly Cloudy
6:55 PM 68.0 °F - 15.8 °F 13% 29.91 in 10.0 mi West 6.9 mph - N/A   Partly Cloudy
7:55 PM 62.6 °F - 15.8 °F 16% 29.92 in 10.0 mi WNW 9.2 mph - N/A   Partly Cloudy
8:55 PM 64.4 °F - 17.6 °F 16% 29.94 in 10.0 mi SW 6.9 mph - N/A   Clear
9:55 PM 62.6 °F - 17.6 °F 18% 29.93 in 10.0 mi WSW 6.9 mph - N/A   Clear
10:55 PM 60.8 °F - 17.6 °F 19% 29.93 in 10.0 mi SW 5.8 mph - N/A   Clear
11:56 PM 59.0 °F - 19.0 °F 21% 29.93 in 10.0 mi West 10.4 mph - N/A   Clear